GW3607 Weather Reports


time (UTC)temp
C
wind
direction
speed
KPH
gust
KPH
rain 1hr
cm
rain 24hr
cm
rain mn
cm
humidity
%
barometer
mb
20260510071551 23 105 1.6 8.0 0.00 0.00 0.00 37 1023.2
20260510071037 23 4 1.6 9.7 0.00 0.00 0.00 38 1023.1
20260510070536 23 303 1.6 14.5 0.00 0.00 0.00 39 1023.1
20260510070039 23 343 3.2 14.5 0.00 0.00 0.00 37 1023.1
20260510065536 23 36 4.8 14.5 0.00 0.00 0.00 37 1023.2
20260510065036 23 359 3.2 11.3 0.00 0.00 0.00 39 1023.2
20260510064542 23 332 1.6 11.3 0.00 0.00 0.00 39 1023.3
20260510064036 23 341 3.2 11.3 0.00 0.00 0.00 41 1023.3
20260510063536 22 348 3.2 12.9 0.00 0.00 0.00 40 1023.4
20260510063045 23 31 3.2 12.9 0.00 0.00 0.00 39 1023.5
20260510062536 22 12 3.2 11.3 0.00 0.00 0.00 40 1023.4
20260510062035 22 0 3.2 12.9 0.00 0.00 0.00 41 1023.5
20260510061549 22 70 4.8 12.9 0.00 0.00 0.00 41 1023.6
20260510061036 22 96 1.6 11.3 0.00 0.00 0.00 40 1023.6
20260510060538 23 126 1.6 11.3 0.00 0.00 0.00 39 1023.6
20260510060039 23 345 4.8 11.3 0.00 0.00 0.00 38 1023.6
20260510055536 22 13 1.6 12.9 0.00 0.00 0.00 40 1023.7
20260510055036 22 39 4.8 12.9 0.00 0.00 0.00 39 1023.8
20260510054542 22 116 1.6 11.3 0.00 0.00 0.00 41 1023.8
20260510054037 23 43 1.6 11.3 0.00 0.00 0.00 40 1023.8
20260510053536 23 353 3.2 9.7 0.00 0.00 0.00 40 1023.8
20260510053049 23 14 3.2 8.0 0.00 0.00 0.00 39 1024.0
20260510052536 22 26 1.6 6.4 0.00 0.00 0.00 42 1024.0
20260510052036 22 0 1.6 9.7 0.00 0.00 0.00 41 1024.1
20260510051544 22 3 3.2 11.3 0.00 0.00 0.00 42 1024.1
20260510051035 22 32 3.2 11.3 0.00 0.00 0.00 42 1024.3
20260510050537 22 81 1.6 12.9 0.00 0.00 0.00 42 1024.2
20260510050045 22 19 3.2 12.9 0.00 0.00 0.00 42 1024.2
20260510045536 22 72 4.8 12.9 0.00 0.00 0.00 40 1024.3
20260510045035 22 24 3.2 9.7 0.00 0.00 0.00 41 1024.4
20260510044540 22 81 1.6 8.0 0.00 0.00 0.00 42 1024.5
20260510044040 22 355 1.6 8.0 0.00 0.00 0.00 43 1024.6
20260510043535 22 347 1.6 12.9 0.00 0.00 0.00 43 1024.5
20260510043040 22 4 4.8 12.9 0.00 0.00 0.00 42 1024.6
20260510042536 22 23 3.2 12.9 0.00 0.00 0.00 43 1024.7
20260510042036 22 17 3.2 12.9 0.00 0.00 0.00 42 1024.8
20260510041542 22 314 3.2 16.1 0.00 0.00 0.00 42 1024.8
20260510041036 22 351 4.8 16.1 0.00 0.00 0.00 42 1025.0
20260510040536 22 6 8.0 16.1 0.00 0.00 0.00 41 1025.0
20260510040048 21 2 3.2 9.7 0.00 0.00 0.00 42 1025.1
20260510035535 22 351 4.8 9.7 0.00 0.00 0.00 43 1025.1
20260510035036 22 35 3.2 8.0 0.00 0.00 0.00 44 1025.1
20260510034543 22 321 1.6 9.7 0.00 0.00 0.00 45 1025.2
20260510034038 21 0 3.2 16.1 0.00 0.00 0.00 44 1025.2
20260510033535 21 338 3.2 16.1 0.00 0.00 0.00 45 1025.2
20260510033048 21 337 4.8 16.1 0.00 0.00 0.00 45 1025.4
20260510032536 21 356 3.2 11.3 0.00 0.00 0.00 46 1025.3
20260510032036 21 18 3.2 12.9 0.00 0.00 0.00 45 1025.6
20260510031546 21 332 6.4 12.9 0.00 0.00 0.00 46 1025.7
20260510031036 20 352 3.2 14.5 0.00 0.00 0.00 46 1025.7
20260510030536 20 359 4.8 14.5 0.00 0.00 0.00 46 1025.8
20260510030038 20 348 6.4 12.9 0.00 0.00 0.00 47 1025.9
20260510025536 20 29 6.4 12.9 0.00 0.00 0.00 47 1025.9
20260510025036 20 10 4.8 9.7 0.00 0.00 0.00 48 1026.0
20260510024546 19 28 4.8 12.9 0.00 0.00 0.00 50 1026.0
20260510024035 19 9 4.8 12.9 0.00 0.00 0.00 50 1026.1
20260510023535 19 51 4.8 12.9 0.00 0.00 0.00 50 1026.3
20260510023040 18 14 3.2 11.3 0.00 0.00 0.00 51 1026.3
20260510022536 19 29 4.8 11.3 0.00 0.00 0.00 51 1026.3
20260510022038 18 351 4.8 11.3 0.00 0.00 0.00 52 1026.4
20260510021538 18 0 4.8 9.7 0.00 0.00 0.00 52 1026.4
20260510021035 18 1 3.2 11.3 0.00 0.00 0.00 54 1026.5
20260510020536 17 345 3.2 17.7 0.00 0.00 0.00 56 1026.6
20260510020042 17 47 3.2 17.7 0.00 0.00 0.00 56 1026.6
20260510015536 17 20 3.2 9.7 0.00 0.00 0.00 56 1026.7
20260510015036 17 324 1.6 11.3 0.00 0.00 0.00 58 1026.8
20260510014538 16 29 3.2 12.9 0.00 0.00 0.00 58 1026.8
20260510014037 16 14 3.2 16.1 0.00 0.00 0.00 59 1026.7
20260510013536 16 18 3.2 16.1 0.00 0.00 0.00 60 1026.6
20260510013042 16 22 6.4 19.3 0.00 0.00 0.00 60 1026.6
20260510012536 16 53 3.2 19.3 0.00 0.00 0.00 60 1026.7
20260510012036 16 41 4.8 14.5 0.00 0.00 0.00 60 1026.7
20260510011553 15 5 6.4 17.7 0.00 0.00 0.00 60 1026.7
20260510011036 15 41 6.4 17.7 0.00 0.00 0.00 60 1026.8
20260510010536 15 81 4.8 17.7 0.00 0.00 0.00 61 1026.8
20260510010039 15 70 4.8 17.7 0.00 0.00 0.00 62 1026.7
20260510005535 14 81 6.4 17.7 0.00 0.00 0.00 62 1026.6
20260510005038 14 180 6.4 17.7 0.00 0.00 0.00 63 1026.6
20260510004550 13 87 9.7 19.3 0.00 0.00 0.00 63 1026.5
20260510004036 13 180 8.0 19.3 0.00 0.00 0.00 64 1026.6
20260510003536 13 180 8.0 24.1 0.00 0.00 0.00 64 1026.5
20260510003100 13 66 11.3 24.1 0.00 0.00 0.00 64 1026.6
20260510002535 13 58 11.3 27.4 0.00 0.00 0.00 64 1026.5
20260510002036 13 45 11.3 27.4 0.00 0.00 0.00 65 1026.4
20260510001543 13 58 9.7 32.2 0.00 0.00 0.00 65 1026.5
20260510001036 12 27 9.7 32.2 0.00 0.00 0.00 65 1026.5
20260510000536 12 68 9.7 25.7 0.00 0.00 0.00 66 1026.3
20260510000045 12 68 8.0 25.7 0.00 0.00 0.00 66 1026.5
20260509235535 12 87 11.3 24.1 0.00 0.00 0.00 66 1026.5
20260509235036 12 40 11.3 22.5 0.00 0.00 0.00 67 1026.5
20260509234557 12 180 12.9 22.5 0.00 0.00 0.00 66 1026.6
20260509234037 12 95 11.3 25.7 0.00 0.00 0.00 67 1026.4
20260509233536 12 81 11.3 25.7 0.00 0.00 0.00 67 1026.4
20260509233046 12 74 11.3 25.7 0.00 0.00 0.00 67 1026.3
20260509232535 12 83 12.9 25.7 0.00 0.00 0.00 68 1026.2
20260509232036 11 55 11.3 25.7 0.00 0.00 0.00 68 1026.2
20260509231550 11 110 11.3 25.7 0.00 0.00 0.00 68 1026.0
20260509231036 11 54 14.5 25.7 0.00 0.00 0.00 68 1026.0
20260509230536 11 74 11.3 24.1 0.00 0.00 0.00 68 1026.1
20260509230048 11 49 11.3 22.5 0.00 0.00 0.00 67 1026.1
20260509225536 12 89 9.7 24.1 0.00 0.00 0.00 67 1026.1
20260509225035 12 180 11.3 24.1 0.00 0.00 0.00 67 1026.1
20260509224542 11 70 9.7 25.7 0.00 0.00 0.00 68 1026.1
20260509224035 11 56 11.3 25.7 0.00 0.00 0.00 68 1026.2
20260509223536 11 64 11.3 25.7 0.00 0.00 0.00 68 1026.1
20260509223039 11 30 11.3 27.4 0.00 0.00 0.00 68 1026.1
20260509222536 11 85 14.5 27.4 0.00 0.00 0.00 69 1026.0
20260509222036 11 85 9.7 24.1 0.00 0.00 0.00 69 1025.8
20260509221539 11 180 11.3 24.1 0.00 0.00 0.00 68 1025.8
20260509221037 11 62 12.9 25.7 0.00 0.00 0.00 68 1025.7
20260509220536 11 180 11.3 25.7 0.00 0.00 0.00 68 1025.8
20260509220046 11 102 12.9 25.7 0.00 0.00 0.00 68 1025.6
20260509215536 11 180 12.9 25.7 0.00 0.00 0.00 68 1025.7
20260509215035 11 58 12.9 25.7 0.00 0.00 0.00 68 1025.6
20260509214540 11 65 12.9 25.7 0.00 0.00 0.00 68 1025.6
20260509214039 11 64 12.9 25.7 0.00 0.00 0.00 68 1025.6
20260509213535 11 81 11.3 20.9 0.00 0.00 0.00 68 1025.5
20260509213047 11 79 11.3 20.9 0.00 0.00 0.00 67 1025.5
20260509212538 11 180 11.3 22.5 0.00 0.00 0.00 67 1025.5
20260509212036 11 83 11.3 25.7 0.00 0.00 0.00 67 1025.5
20260509211543 11 68 12.9 25.7 0.00 0.00 0.00 66 1025.4
20260509211037 11 71 12.9 24.1 0.00 0.00 0.00 66 1025.5
20260509210536 12 70 8.0 24.1 0.00 0.00 0.00 66 1025.4
20260509210047 11 180 9.7 24.1 0.00 0.00 0.00 66 1025.4
20260509205535 11 62 11.3 22.5 0.00 0.00 0.00 67 1025.3
20260509205035 11 83 11.3 24.1 0.00 0.00 0.00 66 1025.3
20260509204539 11 106 12.9 24.1 0.00 0.00 0.00 66 1025.2
20260509204036 11 91 12.9 24.1 0.00 0.00 0.00 66 1025.1
20260509203537 11 94 12.9 24.1 0.00 0.00 0.00 66 1025.0
20260509203040 11 66 11.3 24.1 0.00 0.00 0.00 66 1024.9
20260509202536 11 81 12.9 25.7 0.00 0.00 0.00 66 1024.8
20260509202037 11 70 12.9 25.7 0.00 0.00 0.00 66 1024.9
20260509201540 11 68 12.9 24.1 0.00 0.00 0.00 66 1024.9
20260509201040 11 120 14.5 22.5 0.00 0.00 0.00 66 1024.9
20260509200538 11 85 11.3 22.5 0.00 0.00 0.00 66 1024.9
20260509200040 11 95 11.3 24.1 0.00 0.00 0.00 66 1024.9
20260509195536 11 95 11.3 24.1 0.00 0.00 0.00 66 1025.0
20260509195035 11 91 12.9 22.5 0.00 0.00 0.00 65 1025.0
20260509194542 11 75 12.9 22.5 0.00 0.00 0.00 65 1024.9
20260509194036 11 180 9.7 20.9 0.00 0.00 0.00 65 1024.9
20260509193536 12 180 11.3 20.9 0.00 0.00 0.00 64 1024.9
20260509193050 12 160 9.7 20.9 0.00 0.00 0.00 64 1025.0
20260509192535 12 180 11.3 20.9 0.00 0.00 0.00 64 1025.0
20260509192035 12 68 11.3 20.9 0.00 0.00 0.00 64 1025.0
20260509191540 12 77 11.3 20.9 0.00 0.00 0.00 64 1024.9
20260509191038 12 61 11.3 20.9 0.00 0.00 0.00 63 1025.0
20260509190535 12 180 11.3 20.9 0.00 0.00 0.00 63 1024.9
20260509190042 12 180 11.3 20.9 0.00 0.00 0.00 63 1025.0
20260509185536 12 81 11.3 20.9 0.00 0.00 0.00 63 1025.0
20260509185036 12 78 12.9 20.9 0.00 0.00 0.00 62 1025.0
20260509184537 12 180 11.3 22.5 0.00 0.00 0.00 62 1025.0
20260509184036 12 139 12.9 22.5 0.00 0.00 0.00 62 1025.0
20260509183540 12 57 12.9 22.5 0.00 0.00 0.00 61 1025.0
20260509183104 12 70 11.3 22.5 0.00 0.00 0.00 61 1024.9
20260509182536 12 180 9.7 22.5 0.00 0.00 0.00 61 1025.0
20260509182038 12 75 12.9 22.5 0.00 0.00 0.00 60 1025.0
20260509181557 12 180 9.7 22.5 0.00 0.00 0.00 60 1025.0
20260509181037 12 100 9.7 20.9 0.00 0.00 0.00 60 1025.1
20260509180536 13 115 8.0 20.9 0.00 0.00 0.00 60 1025.2
20260509180040 13 113 11.3 20.9 0.00 0.00 0.00 59 1025.2
20260509175536 13 114 9.7 20.9 0.00 0.00 0.00 59 1025.3
20260509175035 13 86 11.3 19.3 0.00 0.00 0.00 59 1025.3
20260509174547 13 180 9.7 17.7 0.00 0.00 0.00 59 1025.3
20260509174037 13 106 9.7 17.7 0.00 0.00 0.00 59 1025.3
20260509173535 13 118 9.7 19.3 0.00 0.00 0.00 58 1025.2
20260509173044 13 106 9.7 19.3 0.00 0.00 0.00 58 1025.2
20260509172536 13 117 8.0 19.3 0.00 0.00 0.00 57 1025.2
20260509172036 13 180 8.0 19.3 0.00 0.00 0.00 57 1025.2
20260509171544 13 180 8.0 16.1 0.00 0.00 0.00 57 1025.2
20260509171035 13 107 8.0 19.3 0.00 0.00 0.00 57 1025.2
20260509170539 13 118 8.0 20.9 0.00 0.00 0.00 56 1025.3
20260509170044 13 81 9.7 20.9 0.00 0.00 0.00 56 1025.3
20260509165536 13 74 8.0 19.3 0.00 0.00 0.00 56 1025.3
20260509165035 13 108 8.0 17.7 0.00 0.00 0.00 56 1025.2
20260509164540 13 180 6.4 19.3 0.00 0.00 0.00 56 1025.3
20260509164036 13 106 8.0 19.3 0.00 0.00 0.00 56 1025.3
20260509163538 13 47 8.0 17.7 0.00 0.00 0.00 56 1025.3
20260509163046 13 180 6.4 19.3 0.00 0.00 0.00 55 1025.4
20260509162535 13 180 9.7 19.3 0.00 0.00 0.00 55 1025.3
20260509162147 13 120 9.7 19.3 0.00 0.00 0.00 55 1025.4
20260509161544 13 180 9.7 19.3 0.00 0.00 0.00 55 1025.5
20260509161038 13 79 8.0 19.3 0.00 0.00 0.00 55 1025.4
20260509160535 13 105 9.7 19.3 0.00 0.00 0.00 55 1025.4
20260509160044 13 84 8.0 17.7 0.00 0.00 0.00 55 1025.4
20260509155534 13 180 8.0 17.7 0.00 0.00 0.00 55 1025.5
20260509155036 13 180 8.0 16.1 0.00 0.00 0.00 55 1025.5
20260509154554 13 92 6.4 17.7 0.00 0.00 0.00 54 1025.5
20260509154036 13 180 8.0 17.7 0.00 0.00 0.00 55 1025.6
20260509153535 13 94 6.4 19.3 0.00 0.00 0.00 54 1025.6
20260509153046 13 136 6.4 19.3 0.00 0.00 0.00 54 1025.6
20260509152536 13 98 6.4 14.5 0.00 0.00 0.00 54 1025.6
20260509152036 13 96 6.4 19.3 0.00 0.00 0.00 53 1025.6
20260509151550 14 74 6.4 19.3 0.00 0.00 0.00 53 1025.6
20260509151035 14 101 6.4 19.3 0.00 0.00 0.00 53 1025.6
20260509150535 14 131 6.4 17.7 0.00 0.00 0.00 52 1025.7
20260509150038 14 87 9.7 17.7 0.00 0.00 0.00 52 1025.8
20260509145535 14 103 6.4 17.7 0.00 0.00 0.00 52 1025.7
20260509145035 14 84 8.0 19.3 0.00 0.00 0.00 52 1025.8
20260509144543 14 92 8.0 24.1 0.00 0.00 0.00 52 1025.8
20260509144035 14 122 9.7 24.1 0.00 0.00 0.00 51 1025.7
20260509143535 15 139 11.3 24.1 0.00 0.00 0.00 51 1025.7
20260509143044 15 52 8.0 22.5 0.00 0.00 0.00 51 1025.8
20260509142535 15 89 8.0 22.5 0.00 0.00 0.00 51 1025.8
20260509142034 15 180 8.0 17.7 0.00 0.00 0.00 51 1025.7
20260509141539 15 99 11.3 17.7 0.00 0.00 0.00 51 1025.8
20260509141036 15 64 8.0 17.7 0.00 0.00 0.00 50 1025.8
20260509140535 15 180 8.0 17.7 0.00 0.00 0.00 50 1025.7
20260509140043 15 180 8.0 19.3 0.00 0.00 0.00 50 1025.7
20260509135537 15 114 9.7 19.3 0.00 0.00 0.00 50 1025.6
20260509135035 15 66 8.0 19.3 0.00 0.00 0.00 50 1025.7
20260509134544 15 79 8.0 19.3 0.00 0.00 0.00 49 1025.7
20260509134035 15 180 8.0 19.3 0.00 0.00 0.00 49 1025.7
20260509133535 15 106 8.0 19.3 0.00 0.00 0.00 49 1025.8
20260509133047 15 93 9.7 19.3 0.00 0.00 0.00 49 1025.7
20260509132535 15 113 9.7 17.7 0.00 0.00 0.00 48 1025.6
20260509132036 15 72 9.7 17.7 0.00 0.00 0.00 48 1025.6
20260509131540 15 97 11.3 22.5 0.00 0.00 0.00 48 1025.6
20260509131036 15 81 8.0 22.5 0.00 0.00 0.00 48 1025.6
20260509130536 15 79 9.7 17.7 0.00 0.00 0.00 48 1025.5
20260509130040 15 98 8.0 22.5 0.00 0.00 0.00 48 1025.5
20260509125536 15 62 9.7 22.5 0.00 0.00 0.00 48 1025.5
20260509125036 15 61 9.7 20.9 0.00 0.00 0.00 48 1025.6
20260509124538 15 110 11.3 20.9 0.00 0.00 0.00 48 1025.6
20260509124032 15 104 11.3 20.9 0.00 0.00 0.00 47 1025.5
20260509123537 15 102 8.0 20.9 0.00 0.00 0.00 48 1025.5
20260509123039 15 97 11.3 19.3 0.00 0.00 0.00 47 1025.5
20260509122536 15 85 9.7 22.5 0.00 0.00 0.00 48 1025.3
20260509122035 15 93 9.7 22.5 0.00 0.00 0.00 48 1025.3
20260509121545 15 108 9.7 19.3 0.00 0.00 0.00 47 1025.3
20260509121035 15 85 8.0 17.7 0.00 0.00 0.00 47 1025.3
20260509120535 15 81 9.7 20.9 0.00 0.00 0.00 47 1025.3
20260509120051 15 89 8.0 20.9 0.00 0.00 0.00 47 1025.3
20260509115534 15 91 9.7 19.3 0.00 0.00 0.00 47 1025.4
20260509115036 15 79 9.7 17.7 0.00 0.00 0.00 47 1025.4
20260509114548 15 85 8.0 17.7 0.00 0.00 0.00 47 1025.3
20260509114035 16 99 8.0 16.1 0.00 0.00 0.00 47 1025.3
20260509113535 16 97 8.0 19.3 0.00 0.00 0.00 46 1025.4
20260509113050 16 64 6.4 19.3 0.00 0.00 0.00 46 1025.3
20260509112535 16 116 6.4 19.3 0.00 0.00 0.00 47 1025.3
20260509112035 16 90 4.8 12.9 0.00 0.00 0.00 47 1025.5
20260509111551 16 105 4.8 14.5 0.00 0.00 0.00 47 1025.5
20260509111035 16 97 6.4 14.5 0.00 0.00 0.00 47 1025.5
20260509110537 16 86 6.4 12.9 0.00 0.00 0.00 47 1025.4
20260509110044 16 105 4.8 12.9 0.00 0.00 0.00 46 1025.4
20260509105535 16 106 4.8 12.9 0.00 0.00 0.00 46 1025.4
20260509105036 16 95 4.8 11.3 0.00 0.00 0.00 45 1025.4
20260509104544 16 70 4.8 11.3 0.00 0.00 0.00 45 1025.5
20260509104036 16 77 3.2 12.9 0.00 0.00 0.00 46 1025.6
20260509103534 16 99 4.8 12.9 0.00 0.00 0.00 45 1025.4
20260509103047 16 94 4.8 11.3 0.00 0.00 0.00 44 1025.5
20260509102535 16 106 4.8 11.3 0.00 0.00 0.00 45 1025.5
20260509102036 16 82 4.8 11.3 0.00 0.00 0.00 45 1025.5
20260509101551 16 94 4.8 9.7 0.00 0.00 0.00 45 1025.3
20260509101035 17 80 3.2 6.4 0.00 0.00 0.00 44 1025.4
20260509100535 17 0 3.2 6.4 0.00 0.00 0.00 44 1025.3
20260509100049 17 97 1.6 9.7 0.00 0.00 0.00 43 1025.3
20260509095535 17 98 3.2 9.7 0.00 0.00 0.00 42 1025.3
20260509095035 17 106 3.2 9.7 0.00 0.00 0.00 43 1025.3
20260509094543 17 93 3.2 9.7 0.00 0.00 0.00 42 1025.2
20260509094036 17 85 3.2 11.3 0.00 0.00 0.00 43 1025.3
20260509093539 18 79 1.6 11.3 0.00 0.00 0.00 42 1025.2
20260509093055 18 105 3.2 11.3 0.00 0.00 0.00 42 1025.1
20260509092536 18 93 3.2 9.7 0.00 0.00 0.00 41 1025.1
20260509092035 18 76 3.2 9.7 0.00 0.00 0.00 40 1025.2
20260509091548 18 105 3.2 9.7 0.00 0.00 0.00 40 1025.2
20260509091036 19 68 3.2 9.7 0.00 0.00 0.00 40 1025.1
20260509090536 19 78 1.6 6.4 0.00 0.00 0.00 40 1025.0
20260509090051 19 58 0.0 6.4 0.00 0.00 0.00 39 1025.0
20260509085535 20 60 1.6 6.4 0.00 0.00 0.00 38 1025.1
20260509085039 20 66 3.2 9.7 0.00 0.00 0.00 38 1025.1
20260509084554 20 58 1.6 9.7 0.00 0.00 0.00 38 1025.1
20260509084035 20 47 0.0 14.5 0.00 0.00 0.00 39 1025.0
20260509083534 20 0 3.2 14.5 0.00 0.00 0.00 39 1024.9
20260509083040 20 81 3.2 11.3 0.00 0.00 0.00 38 1024.9
20260509082535 20 64 3.2 12.9 0.00 0.00 0.00 38 1025.0
20260509082039 21 129 3.2 12.9 0.00 0.00 0.00 39 1024.9
20260509081542 21 76 3.2 17.7 0.00 0.00 0.00 38 1024.9
20260509081035 21 62 3.2 17.7 0.00 0.00 0.00 38 1024.9
20260509080535 21 81 3.2 14.5 0.00 0.00 0.00 38 1025.0
20260509080050 21 122 3.2 14.5 0.00 0.00 0.00 38 1024.9
20260509075535 21 77 1.6 9.7 0.00 0.00 0.00 39 1024.8
20260509075037 21 63 1.6 9.7 0.00 0.00 0.00 37 1024.8
20260509074538 22 45 1.6 11.3 0.00 0.00 0.00 36 1024.7
20260509074035 22 67 3.2 11.3 0.00 0.00 0.00 37 1024.7
20260509073536 22 349 3.2 19.3 0.00 0.00 0.00 37 1024.7
20260509073040 21 12 4.8 19.3 0.00 0.00 0.00 38 1024.6
20260509072537 21 58 4.8 19.3 0.00 0.00 0.00 37 1024.6
20260509072034 21 81 3.2 12.9 0.00 0.00 0.00 38 1024.5